Location: Passau
(48.5830°N, 13.4830°E)
Time: 08:39:12
(UTC+01:00)

NOAA 19 - Pass Details

Date: 03 December 2021
Orbit: 841 x 860 km, 99.2° (Epoch: 26 January)

Event Time Altitude Azimuth Distance (km) Brightness Sun altitude
Rises 19:46:02 0° 198° (SSW) 3,383 8.5 -34.5°
Reaches altitude 10° 19:48:46 10° 211° (SSW) 2,454 7.8 -34.9°
Maximum altitude 19:53:16 26° 267° (W) 1,602 7.1 -35.7°
Drops below altitude 10° 19:57:49 10° 323° (NW) 2,475 8.1 -36.4°
Sets 20:00:36 0° 336° (NNW) 3,418 8.7 -36.9°
